User: anonymous   Login
Location: Unspecified
(0.0000°N, 0.0000°E)
Time: 18:56:26
(UTC+02:00)
Language:

Cosmos 2263 Rocket - Orbit

View from above orbital plane
View from above orbital plane
View from above satellite
View from above satellite

Ground track
Ground track

The orbit data is extracted from the following two-line orbital elements,

1 22803U 93059B   16205.13749779 -.00000075  00000-0 -13547-4 0  9990
2 22803  70.9884 222.8069 0016834 174.5994 185.5314 14.16748872181671
Epoch (UTC): 23 July 2016 03:17:59
Eccentricity: 0.0016834
inclination: 70.9884°
perigee height: 824 km
apogee height: 848 km
right ascension of ascending node: 222.8069°
argument of perigee: 174.5994°
revolutions per day: 14.16748872
mean anomaly at epoch: 185.5314°
orbit number at epoch: 18167

The dashed part of the orbit path shows where the satellite is in the earth's shadow,  

DLR